User: anonymous
Location: Unspecified
(0.0000°N, 0.0000°E)
Time: 16:27:32
(UTC+02:00)
Language:

ARIANE 5 R/B - Orbit

View from above orbital plane
View from above orbital plane
View from above satellite
View from above satellite

Ground track
Ground track

The orbit data is extracted from the following two-line orbital elements,

1 27387U 02009B   14112.11225325  .00000176  00000-0  75023-4 0  1490
2 27387 098.3074 076.9290 0031773 338.7732 074.0174 14.35702873636229
Epoch (UTC): 22 April 2014 02:41:38
Eccentricity: 0.0031773
inclination: 98.3074°
perigee height: 750 km
apogee height: 795 km
right ascension of ascending node: 76.9290°
argument of perigee: 338.7732°
revolutions per day: 14.35702873
mean anomaly at epoch: 74.0174°
orbit number at epoch: 63622

The dashed part of the orbit path shows where the satellite is in the earth's shadow,  

DLR